Weather History for KPWC - February, 2013

Change the Weather History Date:

Thursday, February 7, 2013

  Actual Average Record
Temperature  
Mean Temperature 12 °F -  
Max Temperature 23 °F 24 °F 44 °F (2002)
Min Temperature -2 °F 4 °F -20 °F (2007)
Degree Days  
Heating Degree Days 54    
Moisture  
Dew Point 13 °F    
Average Humidity 88    
Maximum Humidity 93    
Minimum Humidity 74    
Precipitation  
Precipitation 0.00 in - - ()
Sea Level Pressure  
Sea Level Pressure 30.19 in    
Wind  
Wind Speed 5 mph (NNE)    
Max Wind Speed 10 mph    
Max Gust Speed -    
Visibility 9 miles    
Events      
Averages and records for this station are not official NWS values.
T = Trace of Precipitation, MM = Missing Value Source: NWS Daily Summary

Daily Weather History Graph

Daily Weather History Graph

Search for Another Location

Airport or City:

Trip Planner

Search our weather history database for the weather conditions in past years. The results will help you decide how hot, cold, wet, or windy it might be!

Date:

Astronomy

Feb. 07, 2013 Rise Set
Actual Time 7:33 AM CST 5:30 PM CST
Civil Twilight 7:01 AM CST 6:02 PM CST
Nautical Twilight 6:25 AM CST 6:38 PM CST
Astronomical Twilight 5:50 AM CST 7:13 PM CST
Moon 5:19 AM CST (2/7) 2:50 PM CST (2/7)
Length of Visible Light 11h 01m
Length of Day
9h 57m
Waning Crescent, 9% of the Moon is Illuminated
Feb 7
Waning Crescent
Feb 10
New
Feb 17
First Quarter
Feb 25
Full
Mar 4
Last Quarter

Hourly Weather History & Observations

Time (CST) Temp. Windchill Dew Point Humidity Pressure Visibility Wind Dir Wind Speed Gust Speed Precip Events Conditions
12:13 AM 19.4 °F 11.5 °F 17.6 °F 93% 30.08 in 10.0 mi ENE 5.8 mph - N/A   Overcast
12:33 AM 19.4 °F 14.3 °F 17.6 °F 93% 30.08 in 10.0 mi ENE 3.5 mph - N/A   Overcast
12:53 AM 19.4 °F 12.8 °F 17.6 °F 93% 30.08 in 10.0 mi ENE 4.6 mph - N/A   Overcast
1:12 AM 19.4 °F 12.8 °F 17.6 °F 93% 30.08 in 10.0 mi ENE 4.6 mph - N/A   Overcast
1:32 AM 19.4 °F 14.3 °F 17.6 °F 93% 30.09 in 10.0 mi NE 3.5 mph - N/A   Overcast
1:52 AM 19.4 °F 11.5 °F 17.6 °F 93% 30.09 in 10.0 mi North 5.8 mph - N/A   Overcast
2:13 AM 19.4 °F 11.5 °F 17.6 °F 93% 30.10 in 7.0 mi NNE 5.8 mph - N/A   Overcast
2:32 AM 19.4 °F 10.4 °F 17.6 °F 93% 30.10 in 5.0 mi NNE 6.9 mph - N/A   Overcast
2:51 AM 19.4 °F 10.4 °F 17.6 °F 93% 30.10 in 5.0 mi NNE 6.9 mph - N/A   Overcast
3:13 AM 19.4 °F 11.5 °F 17.6 °F 93% 30.11 in 7.0 mi North 5.8 mph - N/A   Overcast
3:32 AM 19.4 °F 11.5 °F 17.6 °F 93% 30.10 in 7.0 mi NNE 5.8 mph - N/A   Overcast
3:53 AM 19.4 °F 9.5 °F 17.6 °F 93% 30.10 in 7.0 mi North 8.1 mph - N/A   Overcast
4:12 AM 19.4 °F 8.6 °F 17.6 °F 93% 30.10 in 7.0 mi North 9.2 mph - N/A   Overcast
4:33 AM 19.4 °F 11.5 °F 17.6 °F 93% 30.11 in 5.0 mi NNE 5.8 mph - N/A   Overcast
4:53 AM 19.4 °F 11.5 °F 17.6 °F 93% 30.11 in 5.0 mi NNE 5.8 mph - N/A   Overcast
5:12 AM 19.4 °F 14.3 °F 17.6 °F 93% 30.12 in 10.0 mi NNE 3.5 mph - N/A   Overcast
5:33 AM 19.4 °F 14.3 °F 17.6 °F 93% 30.12 in 10.0 mi North 3.5 mph - N/A   Overcast
5:53 AM 19.4 °F 11.5 °F 17.6 °F 93% 30.13 in 10.0 mi North 5.8 mph - N/A   Overcast
6:12 AM 19.4 °F 11.5 °F 17.6 °F 93% 30.13 in 10.0 mi North 5.8 mph - N/A   Overcast
6:33 AM 19.4 °F 10.4 °F 17.6 °F 93% 30.14 in 10.0 mi North 6.9 mph - N/A   Overcast
6:52 AM 19.4 °F 8.6 °F 17.6 °F 93% 30.15 in 10.0 mi North 9.2 mph - N/A   Overcast
7:13 AM 19.4 °F 10.4 °F 17.6 °F 93% 30.15 in 10.0 mi NNE 6.9 mph - N/A   Overcast
7:33 AM 19.4 °F 8.6 °F 17.6 °F 93% 30.15 in 10.0 mi NNE 9.2 mph - N/A   Overcast
7:52 AM 19.4 °F 9.5 °F 17.6 °F 93% 30.15 in 10.0 mi NNE 8.1 mph - N/A   Overcast
8:13 AM 19.4 °F 9.5 °F 17.6 °F 93% 30.16 in 10.0 mi NNE 8.1 mph - N/A   Overcast
8:33 AM 19.4 °F 9.5 °F 17.6 °F 93% 30.17 in 10.0 mi North 8.1 mph - N/A   Overcast
9:13 AM 19.4 °F 7.9 °F 17.6 °F 93% 30.19 in 10.0 mi NE 10.4 mph - N/A   Overcast
9:33 AM 19.4 °F 9.5 °F 17.6 °F 93% 30.20 in 10.0 mi NNE 8.1 mph - N/A   Overcast
9:52 AM 19.4 °F 10.4 °F 17.6 °F 93% 30.20 in 10.0 mi North 6.9 mph - N/A   Overcast
10:13 AM 19.4 °F 8.6 °F 17.6 °F 93% 30.21 in 10.0 mi North 9.2 mph - N/A   Overcast
10:31 AM 19.4 °F 12.8 °F 17.6 °F 93% 30.21 in 10.0 mi NNE 4.6 mph - N/A   Overcast
10:53 AM 19.4 °F 10.4 °F 17.6 °F 93% 30.22 in 10.0 mi NNE 6.9 mph - N/A   Overcast
11:13 AM 21.2 °F 12.6 °F 17.6 °F 86% 30.22 in 10.0 mi NNE 6.9 mph - N/A   Overcast
11:32 AM 21.2 °F 13.6 °F 17.6 °F 86% 30.22 in 10.0 mi NNE 5.8 mph - N/A   Overcast
11:53 AM 21.2 °F 12.6 °F 17.6 °F 86% 30.21 in 10.0 mi North 6.9 mph - N/A   Overcast
12:12 PM 23.0 °F 13.9 °F 17.6 °F 80% 30.21 in 10.0 mi ENE 8.1 mph - N/A   Overcast
12:33 PM 23.0 °F 13.9 °F 17.6 °F 80% 30.21 in 10.0 mi NE 8.1 mph - N/A   Overcast
12:53 PM 23.0 °F 12.4 °F 17.6 °F 80% 30.21 in 10.0 mi NNE 10.4 mph - N/A   Overcast
1:12 PM 23.0 °F 14.7 °F 17.6 °F 80% 30.21 in 10.0 mi NNE 6.9 mph - N/A   Overcast
1:33 PM 23.0 °F 15.8 °F 17.6 °F 80% 30.21 in 10.0 mi North 5.8 mph - N/A   Overcast
1:53 PM 23.0 °F 14.7 °F 17.6 °F 80% 30.21 in 10.0 mi NE 6.9 mph - N/A   Overcast
2:13 PM 23.0 °F 13.1 °F 17.6 °F 80% 30.21 in 10.0 mi North 9.2 mph - N/A   Overcast
2:33 PM 23.0 °F 14.7 °F 15.8 °F 74% 30.20 in 10.0 mi North 6.9 mph - N/A   Overcast
2:53 PM 23.0 °F 13.9 °F 15.8 °F 74% 30.21 in 10.0 mi NE 8.1 mph - N/A   Overcast
3:13 PM 23.0 °F 13.1 °F 15.8 °F 74% 30.21 in 10.0 mi North 9.2 mph - N/A   Overcast
3:33 PM 23.0 °F 14.7 °F 15.8 °F 74% 30.21 in 10.0 mi North 6.9 mph - N/A   Overcast
3:53 PM 23.0 °F 14.7 °F 15.8 °F 74% 30.22 in 10.0 mi North 6.9 mph - N/A   Overcast
4:13 PM 23.0 °F 14.7 °F 15.8 °F 74% 30.22 in 10.0 mi North 6.9 mph - N/A   Overcast
4:33 PM 21.2 °F 13.6 °F 15.8 °F 80% 30.22 in 10.0 mi NNE 5.8 mph - N/A   Overcast
4:52 PM 21.2 °F 13.6 °F 14.0 °F 74% 30.22 in 10.0 mi NNE 5.8 mph - N/A   Scattered Clouds
5:32 PM 19.4 °F - 12.2 °F 74% 30.24 in 10.0 mi Calm Calm - N/A   Clear
5:53 PM 15.8 °F - 12.2 °F 86% 30.24 in 10.0 mi Calm Calm - N/A   Clear
6:12 PM 15.8 °F 10.2 °F 12.2 °F 86% 30.25 in 10.0 mi NNW 3.5 mph - N/A   Clear
6:33 PM 12.2 °F - 10.4 °F 92% 30.26 in 10.0 mi Calm Calm - N/A   Clear
6:53 PM 12.2 °F - 10.4 °F 92% 30.26 in 10.0 mi Calm Calm - N/A   Clear
7:13 PM 10.4 °F - 8.6 °F 92% 30.26 in 10.0 mi Calm Calm - N/A   Clear
7:32 PM 10.4 °F - 8.6 °F 92% 30.27 in 10.0 mi Calm Calm - N/A   Clear
7:53 PM 6.8 °F - 3.2 °F 85% 30.26 in 10.0 mi Calm Calm - N/A   Clear
8:13 PM 6.8 °F - 3.2 °F 85% 30.26 in 10.0 mi Calm Calm - N/A   Clear
8:32 PM 3.2 °F - 1.4 °F 92% 30.26 in 10.0 mi Calm Calm - N/A   Clear
8:52 PM 5.0 °F - 1.4 °F 85% 30.28 in 7.0 mi Calm Calm - N/A   Clear
9:13 PM 3.2 °F - 1.4 °F 92% 30.28 in 10.0 mi Calm Calm - N/A   Clear
9:32 PM 3.2 °F - -0.4 °F 85% 30.28 in 10.0 mi Calm Calm - N/A   Clear
9:53 PM 1.4 °F - -0.4 °F 92% 30.28 in 10.0 mi Calm Calm - N/A   Clear
10:13 PM 1.4 °F - -0.4 °F 92% 30.28 in 10.0 mi Calm Calm - N/A   Clear
10:33 PM -0.4 °F - -4.0 °F 85% 30.28 in 10.0 mi Calm Calm - N/A   Clear
10:53 PM -0.4 °F - -4.0 °F 85% 30.29 in 10.0 mi Calm Calm - N/A   Clear
11:12 PM -0.4 °F - -4.0 °F 85% 30.30 in 10.0 mi Calm Calm - N/A   Clear
11:33 PM -0.4 °F - -4.0 °F 85% 30.29 in 10.0 mi Calm Calm - N/A   Clear
11:52 PM -2.2 °F - -5.8 °F 85% 30.30 in 7.0 mi Calm Calm - N/A   Clear